Regional Weather Roundup
Issued by NWS Portland, ME

Current Version | Previous Version | Text Only | Print | Product List | Glossary Off
Versions: 1 2 3 4 5 6 7 8 9 10 11 12 13 14 15 16 17 18 19 20 21 22 23 24 25 26 27 28 29 30 31 32 33 34 35 36 37 38 39 40 41 42 43 44 45 46 47 48 49 50

000
ASUS41 KGYX 241610
RWRGYX
WEATHER ROUNDUP FOR MAINE AND NEW HAMPSHIRE
NATIONAL WEATHER SERVICE GRAY ME
1200 PM EDT TUE APR 24 2018

MEZ002-005-006-010-012-015-018-020-021-024-026-027-029-241700-
MAINE

CITY           SKY/WX    TMP DP  RH WIND       PRES   REMARKS
PORTLAND       PTSUNNY   58  36  43 S13G22    30.31F
SANFORD        FAIR      66  28  24 S10       30.31F
BAR HARBOR     FAIR      53  37  54 SW14      30.32F
WISCASSET      FAIR      60  31  33 S7        30.33F
ROCKLAND       FAIR      56  33  42 SW13      30.32F
FRYEBURG       FAIR      70  22  16 S8        30.27F
LEWISTONAUBURN FAIR      68  27  21 VRB7      30.28F
AUGUSTA        FAIR      67  28  23 SW6       30.29F
WATERVILLE     FAIR      66  29  24 VRB5      30.23F
BANGOR         FAIR      68  30  24 S14       30.27F
GREENVILLE       N/A     64  29  26 MISG      30.22F
MILLINOCKET    FAIR      66  25  21 MISG      30.24F
HOULTON        FAIR      65  22  19 SW9       30.20F
PRESQUE ISLE   FAIR      64  20  18 SW10G17   30.18F
FRENCHVILLE    FAIR      60  19  20 SW10      30.14F
CARIBOU        FAIR      60  18  19 SW10      30.16F
$$

NHZ002-005-008-009-011-012-014-241700-
NEW HAMPSHIRE

CITY           SKY/WX    TMP DP  RH WIND       PRES   REMARKS
PORTSMOUTH     PTSUNNY   68  26  21 SW6       30.31F
ROCHESTER      FAIR      68  30  24 VRB7      30.31F
NASHUA         FAIR      67  25  20 S9        30.33F
MANCHESTER     PTSUNNY   69  24  18 S8        30.31F
CONCORD        FAIR      68  25  19 W10       30.31F
LACONIA        FAIR      65  26  23 W13       30.30F
PLYMOUTH       FAIR      67  26  21 W7        30.28F
BERLIN         FAIR      69  24  18 VRB7      30.25F
WHITEFIELD     FAIR      67  24  19 VRB7G17   30.25F
JAFFREY        FAIR      62  26  25 SW10G18   30.34F
KEENE          FAIR      66  26  22 SW6G17    30.33F
LEBANON        FAIR      66  30  26 S9        30.29F
MT WASHINGTON  MOSUNNY   39  16  38 SW16        N/A
$$

VTZ005-007-008-241700-
VERMONT

CITY           SKY/WX    TMP DP  RH WIND       PRES   REMARKS
ST JOHNSBURY     N/A     66  27  23 MISG      30.24F
MONTPELIER     FAIR      64  21  19 SW9G17    30.30F
BURLINGTON     PTSUNNY   67  29  24 S18       30.24F
$$

MAZ007-012-024-CTZ003-RIZ002-NYZ038-NYZ072-241700-
SOUTHERN NEW ENGLAND AND NY

CITY           SKY/WX    TMP DP  RH WIND       PRES   REMARKS
BOSTON         FAIR      65  27  23 SW13      30.36F
WORCESTER      FAIR      60  26  27 SW14      30.35F
NANTUCKET      FAIR      52  45  77 S10       30.44F
PROVIDENCE     PTSUNNY   61  42  49 S17       30.39F
HARTFORD       PTSUNNY   65  28  24 S14G20    30.36F
ALBANY         FAIR      65  26  23 S10G17    30.31F
NEW YORK CITY  PTSUNNY   62  37  39 SE13G20   30.37F
$$

ANZ081-ANZ082-ANZ150-NHZ014-MEZ023>029-241700-
COASTAL MARINE OBSERVATIONS

STATION/POSITION TIME  TEMP    WIND        PRES    WAVE
                       AIR SEA DIR/SP/G            HT/PER
                 (UTC) (F)     (DEG/KT/KT) (MB)    (FT/S)
MOUNT DESERT ROC 1600   43     200/ 16/ 17 1028.0F
MATINICUS ROCK   1600   45     220/ 16/ 17 1027.2
ISLE OF SHOALS   1600   50     170/ 17/ 18 1027.1
JEFFREYS LEDGE   1536      44                N/A     2/ 4
CASHES LEDGE BUO 1550   47 42              1028.5F   3/ 4
$$

.............KEY..............
   WCI - WIND CHILL
   TC  - TEMPERATURE IN CELSIUS
   VSB - VISIBILITY IN MILES
   HX  - HEAT INDEX
   FAIR- INDICATES FEW OR NO CLOUDS BELOW 12,000 FT, WITH NO
         SIGNIFICANT WEATHER AND/OR OBSTRUCTIONS TO VISIBILITY.






USA.gov is the U.S. government's official web portal to all federal, state and local government web resources and services.